Voltar ao catálogo

CZ-6A DEB

AtivoPO
NORAD 61281·DEBRIS·🇨🇳 China

Lançado Aug 6, 2024 de Taiyuan Satellite Launch Center

Loading…

Próximas Passagens (próximas 24 horas)

TLE

AtualizadoSource: Space-Track

Época: Sep 14, 2026, 11:03 UTC

1 61281U 24140SS  26257.46078526  .00000646  00000-0  19236-3 0  9999
2 61281  89.0364 265.4736 0067616  43.3289 317.3201 14.40658059107667

Acompanhe CZ-6A DEB em tempo real com AllMySat

Download on the App Store